• In Denmark
  • List of Countries
  • For 7 days
  • Water Temperature
  • Satellite Maps
  • Weather Map
  • Weather Widgets
  • user-avatar
    Login

    Hourly Weather Varadero

    Today, 23 July, Monday

    Time Temperature Precipitation Wind Pressure Humidity
    00:00 +28°C° 0 mm 2 mps 760 mmHg 71%
    01:00 +28°C° 0 mm 2 mps 760 mmHg 72%
    02:00 +28°C° 0 mm 3 mps 760 mmHg 73%
    03:00 +28°C° 0 mm 3 mps 759 mmHg 75%
    04:00 +28°C° 0 mm 3 mps 759 mmHg 76%
    05:00 +28°C° 0 mm 3 mps 759 mmHg 75%
    06:00 +28°C° 0 mm 3 mps 759 mmHg 74%
    07:00 +29°C° 0 mm 2 mps 760 mmHg 74%
    08:00 +31°C° 0 mm 3 mps 760 mmHg 66%
    09:00 +34°C° 0 mm 3 mps 760 mmHg 58%
    10:00 +36°C° 0 mm 3 mps 760 mmHg 51%
    11:00 +37°C° 0 mm 3 mps 760 mmHg 47%
    12:00 +38°C° 0 mm 3 mps 760 mmHg 43%
    13:00 +39°C° 0 mm 3 mps 760 mmHg 39%
    14:00 +38°C° 0 mm 3 mps 759 mmHg 42%
    15:00 +38°C° 0 mm 4 mps 759 mmHg 45%
    16:00 +37°C° 0 mm 4 mps 759 mmHg 48%
    17:00 +35°C° 1.7 mm 4 mps 759 mmHg 58%
    18:00 +33°C° 1.7 mm 4 mps 759 mmHg 67%
    19:00 +30°C° 1.7 mm 4 mps 759 mmHg 77%
    20:00 +29°C° 0.5 mm 3 mps 760 mmHg 80%
    21:00 +29°C° 0.5 mm 2 mps 760 mmHg 82%
    22:00 +28°C° 0.5 mm 1 mps 760 mmHg 84%
    23:00 +28°C° 0.2 mm 1 mps 760 mmHg 85%

    Tomorrow, 24 July, Tuesday

    Time Temperature Precipitation Wind Pressure Humidity
    00:00 +28°C° 0.2 mm 1 mps 760 mmHg 86%
    01:00 +28°C° 0.2 mm 1 mps 760 mmHg 87%
    02:00 +27°C° 0.1 mm 2 mps 760 mmHg 87%
    03:00 +27°C° 0.1 mm 2 mps 760 mmHg 88%
    04:00 +27°C° 0.1 mm 2 mps 759 mmHg 88%
    05:00 +27°C° 0 mm 2 mps 760 mmHg 86%
    06:00 +28°C° 0 mm 2 mps 760 mmHg 84%
    07:00 +28°C° 0 mm 2 mps 760 mmHg 81%
    08:00 +31°C° 0 mm 2 mps 760 mmHg 71%
    09:00 +34°C° 0 mm 2 mps 761 mmHg 61%
    10:00 +36°C° 0 mm 2 mps 761 mmHg 51%
    11:00 +37°C° 0 mm 2 mps 761 mmHg 48%
    12:00 +37°C° 0 mm 1 mps 761 mmHg 44%
    13:00 +40°C° 0 mm 1 mps 761 mmHg 41%
    14:00 +38°C° 0.8 mm 2 mps 760 mmHg 48%
    15:00 +36°C° 0.8 mm 2 mps 760 mmHg 55%
    16:00 +34°C° 0.8 mm 2 mps 760 mmHg 62%
    17:00 +32°C° 2.4 mm 2 mps 760 mmHg 68%
    18:00 +31°C° 2.4 mm 1 mps 760 mmHg 73%
    19:00 +30°C° 2.4 mm 1 mps 760 mmHg 79%
    20:00 +29°C° 0.3 mm 1 mps 761 mmHg 80%
    21:00 +29°C° 0.3 mm 1 mps 761 mmHg 81%
    22:00 +28°C° 0.3 mm 1 mps 762 mmHg 82%
    23:00 +28°C° 0 mm 2 mps 762 mmHg 83%

    Day after tomorrow, 25 July, Wednesday

    Time Temperature Precipitation Wind Pressure Humidity
    00:00 +28°C° 0 mm 2 mps 762 mmHg 85%
    01:00 +27°C° 0 mm 3 mps 761 mmHg 86%
    02:00 +27°C° 0.6 mm 3 mps 761 mmHg 86%
    03:00 +27°C° 0.6 mm 3 mps 761 mmHg 86%
    04:00 +27°C° 0.6 mm 3 mps 761 mmHg 86%
    05:00 +27°C° 0.1 mm 3 mps 761 mmHg 85%
    06:00 +28°C° 0.1 mm 2 mps 761 mmHg 85%
    07:00 +28°C° 0.1 mm 2 mps 761 mmHg 84%
    08:00 +30°C° 0 mm 2 mps 761 mmHg 75%
    09:00 +32°C° 0 mm 2 mps 762 mmHg 66%
    10:00 +35°C° 0 mm 3 mps 762 mmHg 57%
    11:00 +36°C° 0 mm 2 mps 762 mmHg 52%
    12:00 +37°C° 0 mm 2 mps 762 mmHg 47%
    13:00 +39°C° 0 mm 1 mps 762 mmHg 42%
    14:00 +38°C° 0 mm 2 mps 761 mmHg 44%
    15:00 +37°C° 0 mm 2 mps 761 mmHg 47%
    16:00 +37°C° 0 mm 2 mps 761 mmHg 49%
    17:00 +35°C° 0.3 mm 2 mps 761 mmHg 57%
    18:00 +34°C° 0.3 mm 2 mps 761 mmHg 65%
    19:00 +31°C° 0.3 mm 3 mps 761 mmHg 72%
    20:00 +30°C° 0.4 mm 3 mps 761 mmHg 75%
    21:00 +29°C° 0.4 mm 3 mps 762 mmHg 78%
    22:00 +29°C° 0.4 mm 3 mps 762 mmHg 81%
    23:00 +28°C° 0.3 mm 2 mps 762 mmHg 82%

    26 July, Thursday

    Time Temperature Precipitation Wind Pressure Humidity
    00:00 +28°C° 0.3 mm 2 mps 762 mmHg 83%
    01:00 +28°C° 0.3 mm 2 mps 762 mmHg 84%
    02:00 +28°C° 0 mm 2 mps 762 mmHg 85%
    03:00 +28°C° 0 mm 2 mps 761 mmHg 85%
    04:00 +27°C° 0 mm 1 mps 761 mmHg 86%
    05:00 +28°C° 0.1 mm 1 mps 761 mmHg 84%
    06:00 +28°C° 0.1 mm 1 mps 762 mmHg 83%
    07:00 +29°C° 0.1 mm 1 mps 762 mmHg 81%
    08:00 +30°C° 0 mm 2 mps 762 mmHg 73%
    09:00 +32°C° 0 mm 2 mps 762 mmHg 66%
    10:00 +35°C° 0 mm 2 mps 763 mmHg 58%
    11:00 +36°C° 0 mm 2 mps 762 mmHg 55%
    12:00 +37°C° 0 mm 2 mps 762 mmHg 52%
    13:00 +38°C° 0 mm 2 mps 762 mmHg 49%
    14:00 +37°C° 0.1 mm 3 mps 762 mmHg 52%
    15:00 +36°C° 0.1 mm 3 mps 761 mmHg 55%
    16:00 +36°C° 0.1 mm 4 mps 761 mmHg 59%
    17:00 +34°C° 1 mm 4 mps 761 mmHg 67%
    18:00 +32°C° 1 mm 4 mps 761 mmHg 75%
    19:00 +30°C° 1 mm 4 mps 761 mmHg 83%
    20:00 +29°C° 0.4 mm 4 mps 762 mmHg 84%
    21:00 +29°C° 0.4 mm 4 mps 762 mmHg 85%
    22:00 +29°C° 0.4 mm 4 mps 762 mmHg 86%
    23:00 +29°C° 0.2 mm 4 mps 762 mmHg 87%

    27 July, Friday

    Time Temperature Precipitation Wind Pressure Humidity
    00:00 +28°C° 0.2 mm 4 mps 762 mmHg 88%
    01:00 +28°C° 0.2 mm 4 mps 761 mmHg 89%
    02:00 +28°C° 0 mm 4 mps 761 mmHg 89%
    03:00 +28°C° 0 mm 4 mps 761 mmHg 90%
    04:00 +27°C° 0 mm 4 mps 761 mmHg 91%
    05:00 +28°C° 0 mm 4 mps 761 mmHg 89%
    06:00 +28°C° 0 mm 4 mps 761 mmHg 87%
    07:00 +28°C° 0 mm 4 mps 762 mmHg 85%
    08:00 +30°C° 0 mm 4 mps 762 mmHg 76%
    09:00 +33°C° 0 mm 4 mps 762 mmHg 67%
    10:00 +34°C° 0 mm 4 mps 762 mmHg 58%
    11:00 +36°C° 0 mm 4 mps 762 mmHg 54%
    12:00 +37°C° 0 mm 4 mps 762 mmHg 50%
    13:00 +38°C° 0 mm 4 mps 762 mmHg 46%
    14:00 +37°C° 0.1 mm 4 mps 761 mmHg 50%
    15:00 +36°C° 0.1 mm 4 mps 761 mmHg 54%
    16:00 +36°C° 0.1 mm 5 mps 761 mmHg 58%
    17:00 +34°C° 0.9 mm 5 mps 761 mmHg 66%
    18:00 +32°C° 0.9 mm 4 mps 761 mmHg 75%
    19:00 +30°C° 0.9 mm 4 mps 761 mmHg 83%
    20:00 +29°C° 0.6 mm 4 mps 762 mmHg 85%
    21:00 +29°C° 0.6 mm 4 mps 762 mmHg 86%
    22:00 +28°C° 0.6 mm 4 mps 763 mmHg 88%
    23:00 +28°C° 0.1 mm 4 mps 762 mmHg 89%

    28 July, Saturday

    Time Temperature Precipitation Wind Pressure Humidity
    00:00 +28°C° 0.1 mm 4 mps 762 mmHg 90%
    01:00 +28°C° 0.1 mm 4 mps 761 mmHg 90%
    02:00 +27°C° 0.1 mm 4 mps 761 mmHg 91%
    03:00 +27°C° 0.1 mm 4 mps 761 mmHg 91%
    04:00 +27°C° 0.1 mm 4 mps 761 mmHg 91%
    05:00 +27°C° 0 mm 4 mps 761 mmHg 89%
    06:00 +27°C° 0 mm 4 mps 761 mmHg 88%
    07:00 +28°C° 0 mm 4 mps 762 mmHg 86%
    08:00 +29°C° 0 mm 4 mps 762 mmHg 77%
    09:00 +32°C° 0 mm 4 mps 762 mmHg 68%
    10:00 +34°C° 0 mm 4 mps 762 mmHg 59%
    11:00 +35°C° 0 mm 3 mps 762 mmHg 55%
    12:00 +36°C° 0 mm 3 mps 762 mmHg 50%
    13:00 +37°C° 0 mm 3 mps 762 mmHg 45%
    14:00 +37°C° 0.1 mm 3 mps 761 mmHg 48%
    15:00 +37°C° 0.1 mm 4 mps 761 mmHg 50%
    16:00 +36°C° 0.1 mm 4 mps 761 mmHg 53%
    17:00 +34°C° 1.8 mm 4 mps 761 mmHg 63%
    18:00 +32°C° 1.8 mm 4 mps 761 mmHg 74%
    19:00 +29°C° 1.8 mm 4 mps 762 mmHg 84%
    20:00 +29°C° 0.4 mm 4 mps 762 mmHg 84%
    21:00 +28°C° 0.4 mm 4 mps 762 mmHg 85%
    22:00 +28°C° 0.4 mm 3 mps 763 mmHg 86%
    23:00 +28°C° 0 mm 3 mps 762 mmHg 86%
    Show more